This demonstration page uses our WeatherBlox Daily Observations layout. Learn more.

Left ArrowRight Arrow

34.02893, -84.19858

Hourly Observations for March 30, 2022

Temp ( °F °C ) Dew Point ( °F °C ) Humidity (%) Winds ( mph kmh ) Pressure ( in mb ) Visibility ( mi km ) Precip ( " mm )
4:53 am 04:53 Clear 55 12.8 47 8.3 74 74 VRB 5 7 30.02 1017 10 16 0.00 0.00
5:53 am 05:53 Clear 54 12.2 47 8.3 77 77 VRB 3 6 30.02 1017 10 16 0.00 0.00
6:53 am 06:53 Clear 53 11.7 48 8.9 83 83 VRB 3 6 30.01 1016 10 16 0.00 0.00
7:53 am 07:53 Mostly Cloudy 53 11.7 49 9.4 86 86 VRB 3 6 30.03 1017 9 14 0.00 0.00
8:33 am 08:33 Cloudy 54 12.2 50 10 87 87 VRB 5 7 30.05 1018 8 13 0.00 0.00
8:53 am 08:53 Cloudy 55 12.8 50 10 83 83 VRB 7 11 30.03 1017 8 13 0.00 0.00
9:53 am 09:53 Cloudy 57 13.9 52 11.1 83 83 VRB 5 7 30.04 1017 9 14 0.00 0.00
10:00 am 10:00 Partly Cloudy 57 13.9 52 11.1 83 83 ESE 8 13 30.05 1017 9 14 0.00 0.00
10:53 am 10:53 Sunny 59 15 53 11.7 81 81 VRB 6 9 30.03 1017 9 14 0.00 0.00
11:53 am 11:53 Sunny 63 17.2 54 12.2 73 73 VRB 3 6 30.01 1016 9 14 0.00 0.00
12:31 pm 12:31 Mostly Cloudy 66 18.9 55 12.8 68 68 VRB 6 9 30.00 1016 8 13 0.00 0.00
12:53 pm 12:53 Cloudy 69 20.6 55 12.8 61 61 VRB 7 11 29.98 1015 8 13 0.00 0.00
1:53 pm 13:53 Cloudy 73 22.8 53 11.7 50 50 SSE 12 19 29.96 1014 8 13 0.00 0.00
2:41 pm 14:41 Partly Cloudy 75 23.9 52 11.1 45 45 SSE 12 19 29.90 1013 10 16 0.00 0.00
2:53 pm 14:53 Partly Cloudy 77 25 52 11.1 42 42 S 14 22 29.91 1013 10 16 0.00 0.00
3:53 pm 15:53 Partly Cloudy 80 26.7 50 10 35 35 S 18 30 29.84 1011 10 16 0.00 0.00
4:53 pm 16:53 Mostly Sunny 81 27.2 47 8.3 30 30 SSE 17 28 29.78 1009 10 16 0.00 0.00
5:53 pm 17:53 Sunny 80 26.7 47 8.3 31 31 S 14 22 29.76 1008 10 16 0.00 0.00
6:53 pm 18:53 Sunny 78 25.6 45 7.2 31 31 S 18 30 29.75 1007 10 16 0.00 0.00
7:53 pm 19:53 Sunny 77 25 44 6.7 31 31 SSE 14 22 29.73 1007 10 16 0.00 0.00
8:53 pm 20:53 Clear 75 23.9 43 6.1 32 32 S 15 24 29.74 1007 10 16 0.00 0.00
9:53 pm 21:53 Clear 73 22.8 47 8.3 40 40 S 15 24 29.76 1008 10 16 0.00 0.00
10:53 pm 22:53 Clear 72 22.2 51 10.6 48 48 S 17 28 29.78 1008 10 16 0.00 0.00
11:53 pm 23:53 Clear 71 21.7 53 11.7 53 53 SSE 17 28 29.74 1007 10 16 0.00 0.00

Powered by AerisWeather